Location: Gand�
(15.0971°N, 12.6564°W)
Time: 02:55:52
(UTC+00:00)

ATLAS CENTAUR R/B - Pass Details

Date: 07 August 2020
Orbit: 476 x 670 km, 64.7° (Epoch: 19 September)

Event Time Altitude Azimuth Distance (km) Brightness Sun altitude
Exits shadow 05:02:31 22° 322° (NW) 1,285 3.0 -21.6°
Drops below altitude 10° 05:04:48 10° 352° (N) 1,864 4.2 -21.1°
Sets 05:07:15 0° 5° (N) 2,723 5.3 -20.6°
